This demonstration page uses our WeatherBlox Daily Observations layout. Learn more.

40.92945, -100.16068

Hourly Observations for December 14, 2019

Temp ( °F °C ) Dew Point ( °F °C ) Humidity (%) Winds ( mph kmh ) Pressure ( in mb ) Visibility ( mi km ) Precip ( " mm )
12:15 am 00:15 Cloudy 31 -0.6 30 -1 97 97 N 6 9 30.03 1017 10 16.0934 0 0
12:35 am 00:35 Mostly Cloudy 31 -0.4 29 -1.9 90 90 N 12 19 30.03 1017 10 16.0934 0 0
12:55 am 00:55 Partly Cloudy 28 -2 27 -3 93 93 N 10 17 30.06 1018 10 16.0934 0 0
1:15 am 01:15 Cloudy 29 -1.8 27 -2.6 94 94 N 12 19 30.04 1017 10 16.0934 0 0
1:35 am 01:35 Cloudy 29 -1.8 27 -2.6 94 94 N 15 24 30.04 1017 10 16.0934 0 0
1:55 am 01:55 Cloudy 29 -1.7 27 -2.8 92 92 N 8 13 30.04 1017 10 16.0934 0 0
2:15 am 02:15 Cloudy 29 -1.5 27 -2.9 90 90 N 13 20 30.04 1017 10 16.0934 0 0
2:35 am 02:35 Cloudy 29 -1.5 27 -2.7 92 92 N 12 19 30.04 1017 10 16.0934 0 0
2:55 am 02:55 Cloudy 29 -1.5 27 -2.9 90 90 N 12 19 30.04 1017 10 16.0934 0 0
3:15 am 03:15 Cloudy 29 -1.5 27 -3 90 90 N 12 19 30.04 1017 10 16.0934 0 0
3:35 am 03:35 Cloudy 29 -1.5 27 -3 90 90 N 8 13 30.03 1017 10 16.0934 0 0
3:55 am 03:55 Cloudy 29 -1.5 27 -2.9 90 90 NNE 9 15 30.04 1017 10 16.0934 0 0
4:15 am 04:15 Cloudy 29 -1.9 26 -3.4 90 90 NNE 10 17 30.04 1017 10 16.0934 0 0
4:35 am 04:35 Cloudy 28 -2.5 25 -3.8 91 91 NNE 10 17 30.04 1017 10 16.0934 0 0
4:55 am 04:55 Cloudy 27 -2.6 25 -4 90 90 NE 7 11 30.04 1017 10 16.0934 0 0
5:15 am 05:15 Cloudy 27 -2.8 25 -4 92 92 N 6 9 30.04 1017 10 16.0934 0 0
5:35 am 05:35 Cloudy 27 -2.8 25 -4 92 92 N 6 9 30.04 1017 10 16.0934 0 0
5:55 am 05:55 Cloudy 27 -2.6 25 -3.9 91 91 NNE 6 9 30.04 1017 10 16.0934 0 0
6:15 am 06:15 Cloudy 27 -2.8 25 -4 92 92 NE 7 11 30.04 1017 10 16.0934 0 0
6:35 am 06:35 Cloudy 27 -3 25 -4 93 93 NNE 7 11 30.06 1018 10 16.0934 0 0
6:55 am 06:55 Cloudy 26 -3.1 25 -4.1 93 93 ENE 8 13 30.06 1018 10 16.0934 0 0
7:15 am 07:15 Cloudy 26 -3.2 24 -4.2 93 93 NE 9 15 30.06 1018 10 16.0934 0 0
7:35 am 07:35 Cloudy 26 -3.5 24 -4.4 94 94 NE 10 17 30.05 1018 10 16.0934 0 0
7:55 am 07:55 Cloudy 25 -4 24 -4.6 96 96 NE 10 17 30.07 1018 10 16.0934 0 0
8:15 am 08:15 Cloudy 25 -4 24 -4.7 95 95 ENE 8 13 30.07 1018 10 16.0934 0 0
8:35 am 08:35 Cloudy 24 -4.2 23 -5 94 94 NE 7 11 30.09 1019 10 16.0934 0 0
8:55 am 08:55 Cloudy 24 -4.6 22 -5.3 95 95 NNE 8 13 30.09 1019 7 11.26538 0 0
9:15 am 09:15 Cloudy 24 -4.7 22 -5.3 96 96 NE 7 11 30.1 1019 7 11.26538 0 0
9:35 am 09:35 Cloudy 23 -5.1 22 -5.7 96 96 NE 7 11 30.11 1020 7 11.26538 0 0
9:55 am 09:55 Cloudy 23 -5 22 -5.6 96 96 E 6 9 30.12 1020 7 11.26538 0 0
10:15 am 10:15 Cloudy 23 -5 21 -6 93 93 E 6 9 30.12 1020 10 16.0934 0 0
10:35 am 10:35 Cloudy 24 -4.7 21 -6 91 91 E 6 9 30.11 1020 10 16.0934 0 0
10:55 am 10:55 Cloudy 24 -4.5 21 -6 89 89 E 7 11 30.1 1019 10 16.0934 0 0
11:15 am 11:15 Cloudy 24 -4.5 21 -6 89 89 E 6 9 30.1 1019 10 16.0934 0 0
11:35 am 11:35 Cloudy 24 -4.5 21 -5.9 90 90 E 7 11 30.09 1019 10 16.0934 0 0
11:55 am 11:55 Cloudy 24 -4.7 21 -5.9 91 91 E 8 13 30.09 1019 7 11.26538 0 0
12:15 pm 12:15 Cloudy with Mist and Fog 23 -4.8 21 -6 91 91 E 7 11 30.08 1018 5 8.0467 0 0
12:35 pm 12:35 Cloudy with Light Snow 23 -4.8 21 -6 91 91 ESE 7 11 30.07 1018 3 4.82802 0 0
12:55 pm 12:55 Cloudy with Light Snow 24 -4.5 21 -5.9 90 90 ESE 8 13 30.05 1018 2 3.21868 0 0
1:15 pm 13:15 Cloudy with Light Snow 24 -4.2 22 -5.8 89 89 ESE 9 15 30.04 1017 2.5 4.02335 0 0
1:35 pm 13:35 Cloudy with Light Snow 25 -4.1 21 -6.1 86 86 E 8 13 30.04 1017 3 4.82802 0 0
1:55 pm 13:55 Cloudy with Mist and Fog 25 -4.1 21 -6.2 86 86 E 8 13 30.02 1017 5 8.0467 0 0
2:15 pm 14:15 Cloudy 25 -4 21 -6.1 86 86 ESE 9 15 30.02 1016 10 16.0934 0 0
2:35 pm 14:35 Cloudy 25 -4 21 -6.1 86 86 ESE 9 15 30.03 1017 10 16.0934 0 0
2:55 pm 14:55 Cloudy 25 -3.9 20 -6.6 82 82 E 8 13 30.02 1016 10 16.0934 0 0
3:15 pm 15:15 Cloudy with Light Snow 25 -3.8 20 -6.6 81 81 E 8 13 30.01 1016 10 16.0934 0 0
3:35 pm 15:35 Cloudy with Light Snow 25 -3.8 19 -7 79 79 ESE 9 15 30.01 1016 10 16.0934 0 0
3:55 pm 15:55 Cloudy 25 -3.8 19 -7.1 78 78 ESE 9 15 30.02 1017 10 16.0934 0 0
4:15 pm 16:15 Cloudy with Light Snow 25 -4 19 -7.1 79 79 ESE 8 13 30.03 1017 7 11.26538 0 0
4:35 pm 16:35 Cloudy with Light Snow 25 -4 20 -6.8 81 81 E 9 15 30.03 1017 10 16.0934 0 0
4:55 pm 16:55 Cloudy 25 -4.1 20 -6.9 81 81 E 8 13 30.04 1017 10 16.0934 0 0
5:15 pm 17:15 Cloudy 25 -4.1 20 -6.9 81 81 ESE 9 15 30.04 1017 10 16.0934 0 0
5:35 pm 17:35 Cloudy 24 -4.2 20 -6.9 82 82 E 8 13 30.04 1017 10 16.0934 0 0
5:55 pm 17:55 Cloudy with Light Snow 24 -4.5 20 -6.7 85 85 E 8 13 30.04 1017 3 4.82802 0 0
6:15 pm 18:15 Cloudy with Light Snow 24 -4.7 20 -6.5 87 87 E 9 15 30.04 1017 2.5 4.02335 0 0
6:35 pm 18:35 Cloudy with Light Snow 23 -5 21 -6.2 91 91 E 9 15 30.05 1018 2 3.21868 0 0
6:55 pm 18:55 Cloudy with Light Snow 23 -5.1 21 -6.1 93 93 E 9 15 30.06 1018 1.75 2.816345 0 0
7:15 pm 19:15 Cloudy with Light Snow 23 -5.1 21 -6 93 93 E 9 15 30.05 1018 1.5 2.41401 0 0
7:35 pm 19:35 Cloudy with Light Snow 23 -5.1 21 -6 93 93 ESE 8 13 30.05 1018 1.75 2.816345 0.01 0.254
7:55 pm 19:55 Cloudy with Light Snow 23 -5.1 21 -6.1 93 93 ESE 8 13 30.05 1018 2.5 4.02335 0.01 0.254
8:15 pm 20:15 Cloudy with Light Snow 23 -5.1 21 -6 93 93 E 8 13 30.05 1018 2 3.21868 0 0
8:35 pm 20:35 Cloudy with Light Snow 23 -5.2 21 -6 94 94 E 8 13 30.05 1018 1.75 2.816345 0 0
8:55 pm 20:55 Cloudy with Light Snow 22 -5.3 21 -6.2 93 93 E 9 15 30.04 1017 2.5 4.02335 0 0
9:15 pm 21:15 Cloudy with Light Snow 22 -5.5 20 -6.5 93 93 ESE 9 15 30.05 1018 2.5 4.02335 0.01 0.254
9:35 pm 21:35 Cloudy with Light Snow 22 -5.5 21 -6.2 95 95 SE 7 11 30.05 1018 2 3.21868 0.01 0.254
9:55 pm 21:55 Cloudy with Light Snow 22 -5.4 21 -6.3 93 93 ESE 10 17 30.05 1018 1.25 2.011675 0.01 0.254
10:15 pm 22:15 Cloudy with Light Snow 22 -5.5 20 -6.5 93 93 ESE 9 15 30.05 1018 2 3.21868 0 0
10:35 pm 22:35 Cloudy with Light Snow 22 -5.5 20 -6.5 93 93 ESE 8 13 30.05 1018 2 3.21868 0 0
10:55 pm 22:55 Cloudy with Light Snow 22 -5.5 20 -6.5 93 93 ESE 10 17 30.05 1018 4 6.43736 0 0
11:15 pm 23:15 Cloudy with Light Snow 22 -5.6 20 -6.9 91 91 ESE 14 22 30.04 1017 3 4.82802 0 0
11:35 pm 23:35 Cloudy with Light Snow 22 -5.6 20 -6.9 91 91 SE 13 20 30.04 1017 7 11.26538 0 0
11:55 pm 23:55 Cloudy 22 -5.7 19 -7 91 91 SE 10 17 30.04 1017 7 11.26538 0 0

Powered by AerisWeather